| time (UTC) | temp F | wind direction | speed MPH | gust MPH | rain 1hr in | rain 24hr in | rain mn in | humidity % | barometer mb |
| 20260502190503 | 44 | 280 | 4.0 | 13.0 | 0.00 | 0.14 | 0.00 | 38 | 1012.5 |
| 20260502190004 | 44 | 278 | 3.0 | 11.0 | 0.00 | 0.14 | 0.00 | 38 | 1012.4 |
| 20260502185503 | 44 | 282 | 4.0 | 11.0 | 0.00 | 0.14 | 0.00 | 39 | 1012.4 |
| 20260502185214 | 44 | 281 | 4.0 | 11.0 | 0.00 | 0.14 | 0.00 | 41 | 1012.5 |
| 20260502184503 | 44 | 268 | 5.0 | 11.0 | 0.00 | 0.14 | 0.00 | 39 | 1012.5 |
| 20260502184003 | 44 | 276 | 4.0 | 11.0 | 0.00 | 0.14 | 0.00 | 39 | 1012.4 |
| 20260502183503 | 44 | 274 | 5.0 | 14.0 | 0.00 | 0.14 | 0.00 | 39 | 1012.3 |
| 20260502182713 | 45 | 268 | 3.0 | 14.0 | 0.00 | 0.14 | 0.00 | 39 | 1012.6 |
| 20260502182003 | 45 | 249 | 3.0 | 10.0 | 0.00 | 0.14 | 0.00 | 40 | 1012.6 |
| 20260502181503 | 45 | 283 | 3.0 | 10.0 | 0.00 | 0.14 | 0.00 | 40 | 1012.5 |
| 20260502181003 | 45 | 263 | 3.0 | 8.0 | 0.00 | 0.14 | 0.00 | 39 | 1012.5 |
| 20260502180712 | 45 | 251 | 3.0 | 12.0 | 0.00 | 0.14 | 0.00 | 38 | 1012.5 |
| 20260502170503 | 45 | 246 | 4.0 | 12.0 | 0.00 | 0.14 | 0.00 | 39 | 1012.3 |
| 20260502164213 | 45 | 184 | 3.0 | 11.0 | 0.00 | 0.14 | 0.00 | 40 | 1012.5 |
| 20260502163503 | 44 | 250 | 6.0 | 16.0 | 0.00 | 0.14 | 0.00 | 41 | 1012.5 |
| 20260502163003 | 45 | 238 | 7.0 | 17.0 | 0.00 | 0.14 | 0.00 | 39 | 1012.6 |
| 20260502162714 | 45 | 224 | 6.0 | 17.0 | 0.00 | 0.14 | 0.00 | 40 | 1012.5 |
| 20260502162003 | 45 | 228 | 6.0 | 15.0 | 0.00 | 0.14 | 0.00 | 39 | 1012.5 |
| 20260502161503 | 44 | 270 | 5.0 | 15.0 | 0.00 | 0.14 | 0.00 | 40 | 1012.6 |
| 20260502161003 | 44 | 220 | 6.0 | 16.0 | 0.00 | 0.14 | 0.00 | 38 | 1012.7 |
| 20260502160503 | 44 | 210 | 8.0 | 18.0 | 0.00 | 0.14 | 0.00 | 38 | 1012.7 |
| 20260502152003 | 43 | 238 | 6.0 | 15.0 | 0.00 | 0.14 | 0.00 | 45 | 1012.6 |
| 20260502151503 | 43 | 225 | 5.0 | 13.0 | 0.00 | 0.14 | 0.00 | 51 | 1012.6 |
| 20260502151212 | 43 | 228 | 5.0 | 12.0 | 0.00 | 0.14 | 0.00 | 48 | 1012.7 |
| 20260502150503 | 43 | 266 | 4.0 | 12.0 | 0.00 | 0.14 | 0.00 | 48 | 1012.7 |
| 20260502130503 | 39 | 249 | 3.0 | 12.0 | 0.00 | 0.14 | 0.00 | 58 | 1013.5 |
| 20260502130214 | 38 | 247 | 4.0 | 12.0 | 0.00 | 0.14 | 0.00 | 58 | 1013.5 |
| 20260502123503 | 37 | 249 | 4.0 | 10.0 | 0.00 | 0.14 | 0.00 | 58 | 1013.6 |
| 20260502123003 | 37 | 235 | 4.0 | 10.0 | 0.00 | 0.14 | 0.00 | 59 | 1013.6 |
| 20260502122712 | 37 | 240 | 4.0 | 10.0 | 0.00 | 0.14 | 0.00 | 59 | 1013.6 |
| 20260502122003 | 37 | 250 | 5.0 | 15.0 | 0.00 | 0.14 | 0.00 | 60 | 1013.6 |
| 20260502121503 | 37 | 234 | 4.0 | 14.0 | 0.00 | 0.14 | 0.00 | 59 | 1013.6 |
| 20260502121003 | 36 | 250 | 5.0 | 14.0 | 0.00 | 0.14 | 0.00 | 60 | 1013.8 |
| 20260502120712 | 36 | 255 | 5.0 | 14.0 | 0.00 | 0.14 | 0.00 | 59 | 1013.8 |
| 20260502115503 | 35 | 259 | 6.0 | 12.0 | 0.00 | 0.14 | 0.00 | 60 | 1013.7 |
| 20260502115003 | 35 | 263 | 6.0 | 12.0 | 0.00 | 0.14 | 0.00 | 59 | 1013.7 |
| 20260502114503 | 35 | 255 | 5.0 | 11.0 | 0.00 | 0.14 | 0.00 | 59 | 1013.5 |
| 20260502114003 | 35 | 244 | 4.0 | 10.0 | 0.00 | 0.14 | 0.00 | 59 | 1013.6 |
| 20260502113714 | 35 | 253 | 4.0 | 10.0 | 0.00 | 0.14 | 0.00 | 59 | 1013.5 |
| 20260502113003 | 34 | 256 | 5.0 | 10.0 | 0.00 | 0.14 | 0.00 | 59 | 1013.6 |
| 20260502112714 | 34 | 256 | 5.0 | 12.0 | 0.00 | 0.14 | 0.00 | 59 | 1013.6 |
| 20260502112003 | 34 | 264 | 3.0 | 12.0 | 0.00 | 0.14 | 0.00 | 59 | 1013.6 |
| 20260502111503 | 34 | 262 | 4.0 | 9.0 | 0.00 | 0.14 | 0.00 | 59 | 1013.5 |
| 20260502111003 | 34 | 260 | 5.0 | 10.0 | 0.00 | 0.14 | 0.00 | 59 | 1013.3 |
| 20260502110503 | 34 | 259 | 5.0 | 12.0 | 0.00 | 0.14 | 0.00 | 59 | 1013.3 |
| 20260502110003 | 34 | 255 | 5.0 | 13.0 | 0.00 | 0.14 | 0.00 | 59 | 1013.3 |
| 20260502105503 | 33 | 257 | 5.0 | 14.0 | 0.00 | 0.14 | 0.00 | 59 | 1013.2 |
| 20260502105003 | 33 | 258 | 3.0 | 14.0 | 0.00 | 0.14 | 0.00 | 60 | 1013.2 |
| 20260502104503 | 33 | 256 | 4.0 | 11.0 | 0.00 | 0.14 | 0.00 | 60 | 1013.2 |
| 20260502104003 | 33 | 258 | 4.0 | 11.0 | 0.00 | 0.14 | 0.00 | 60 | 1013.1 |
| 20260502103503 | 33 | 254 | 4.0 | 11.0 | 0.00 | 0.14 | 0.00 | 60 | 1013.0 |
| 20260502103003 | 33 | 255 | 3.0 | 12.0 | 0.00 | 0.14 | 0.00 | 60 | 1013.1 |
| 20260502102714 | 33 | 256 | 4.0 | 12.0 | 0.00 | 0.14 | 0.00 | 60 | 1013.0 |
| 20260502101503 | 33 | 264 | 5.0 | 13.0 | 0.00 | 0.14 | 0.00 | 60 | 1012.8 |
| 20260502101003 | 33 | 259 | 3.0 | 13.0 | 0.00 | 0.14 | 0.00 | 60 | 1012.8 |
| 20260502100503 | 33 | 259 | 2.0 | 10.0 | 0.00 | 0.14 | 0.00 | 60 | 1012.8 |
| 20260502091503 | 34 | 267 | 2.0 | 10.0 | 0.00 | 0.14 | 0.00 | 61 | 1012.5 |
| 20260502091003 | 34 | 251 | 2.0 | 7.0 | 0.00 | 0.14 | 0.00 | 61 | 1012.5 |
| 20260502090503 | 34 | 235 | 1.0 | 4.0 | 0.00 | 0.14 | 0.00 | 61 | 1012.4 |
| 20260502071003 | 36 | 263 | 4.0 | 9.0 | 0.00 | 0.14 | 0.00 | 58 | 1011.6 |
| 20260502070503 | 36 | 262 | 4.0 | 11.0 | 0.00 | 0.14 | 0.00 | 58 | 1011.6 |
| 20260502070213 | 37 | 262 | 3.0 | 11.0 | 0.00 | 0.14 | 0.00 | 58 | 1011.8 |
| 20260502065503 | 37 | 260 | 2.0 | 7.0 | 0.00 | 0.14 | 0.00 | 58 | 1011.7 |
| 20260502065003 | 37 | 259 | 2.0 | 7.0 | 0.00 | 0.14 | 0.00 | 58 | 1011.6 |
| 20260502064503 | 37 | 269 | 2.0 | 7.0 | 0.00 | 0.14 | 0.00 | 58 | 1011.6 |
| 20260502064003 | 37 | 268 | 3.0 | 7.0 | 0.00 | 0.14 | 0.00 | 58 | 1011.5 |
| 20260502063503 | 38 | 263 | 4.0 | 9.0 | 0.00 | 0.14 | 0.00 | 58 | 1011.5 |
| 20260502063003 | 38 | 264 | 4.0 | 10.0 | 0.00 | 0.14 | 0.00 | 58 | 1011.6 |
| 20260502062503 | 38 | 263 | 4.0 | 11.0 | 0.00 | 0.14 | 0.00 | 58 | 1011.7 |
| 20260502062003 | 38 | 259 | 6.0 | 12.0 | 0.00 | 0.14 | 0.00 | 57 | 1011.6 |
| 20260502061213 | 38 | 260 | 6.0 | 13.0 | 0.00 | 0.14 | 0.00 | 57 | 1011.9 |
| 20260502060503 | 38 | 259 | 6.0 | 13.0 | 0.00 | 0.14 | 0.00 | 57 | 1012.0 |
| 20260502060213 | 38 | 257 | 5.0 | 13.0 | 0.00 | 0.14 | 0.00 | 57 | 1012.0 |
| 20260502055503 | 38 | 256 | 6.0 | 15.0 | 0.00 | 0.14 | 0.00 | 57 | 1011.9 |
| 20260502055003 | 38 | 257 | 5.0 | 15.0 | 0.00 | 0.14 | 0.00 | 57 | 1012.0 |
| 20260502054503 | 38 | 255 | 6.0 | 17.0 | 0.00 | 0.14 | 0.00 | 57 | 1011.7 |
| 20260502054213 | 38 | 260 | 6.0 | 17.0 | 0.00 | 0.14 | 0.00 | 57 | 1011.8 |
| 20260502053503 | 38 | 271 | 6.0 | 15.0 | 0.00 | 0.14 | 0.00 | 56 | 1011.3 |
| 20260502053213 | 38 | 268 | 6.0 | 15.0 | 0.00 | 0.14 | 0.00 | 56 | 1011.5 |
| 20260502052503 | 38 | 262 | 5.0 | 12.0 | 0.00 | 0.14 | 0.00 | 56 | 1011.8 |
| 20260502052003 | 38 | 263 | 4.0 | 14.0 | 0.00 | 0.14 | 0.00 | 56 | 1011.9 |
| 20260502051503 | 38 | 263 | 3.0 | 14.0 | 0.00 | 0.14 | 0.00 | 56 | 1011.9 |
| 20260502051003 | 38 | 259 | 4.0 | 12.0 | 0.00 | 0.14 | 0.00 | 56 | 1011.9 |
| 20260502050503 | 38 | 260 | 4.0 | 12.0 | 0.00 | 0.14 | 0.00 | 56 | 1011.9 |
| 20260502050213 | 38 | 256 | 4.0 | 12.0 | 0.00 | 0.14 | 0.00 | 56 | 1011.9 |
| 20260502045714 | 38 | 253 | 3.0 | 9.0 | 0.00 | 0.14 | 0.00 | 56 | 1011.9 |
| 20260502045003 | 38 | 263 | 3.0 | 8.0 | 0.00 | 0.14 | 0.00 | 56 | 1011.7 |
| 20260502044504 | 39 | 260 | 2.0 | 8.0 | 0.00 | 0.14 | 0.00 | 56 | 1011.8 |
| 20260502044213 | 39 | 258 | 2.0 | 9.0 | 0.00 | 0.14 | 0.00 | 57 | 1011.9 |
| 20260502043503 | 39 | 258 | 2.0 | 9.0 | 0.00 | 0.14 | 0.00 | 58 | 1011.9 |
| 20260502043212 | 39 | 255 | 2.0 | 8.0 | 0.00 | 0.14 | 0.00 | 58 | 1011.9 |
| 20260502042503 | 39 | 257 | 2.0 | 7.0 | 0.00 | 0.14 | 0.00 | 60 | 1011.8 |
| 20260502042003 | 39 | 261 | 2.0 | 7.0 | 0.00 | 0.14 | 0.00 | 60 | 1011.9 |
| 20260502041503 | 39 | 261 | 1.0 | 4.0 | 0.00 | 0.14 | 0.00 | 61 | 1011.8 |
| 20260502041214 | 39 | 258 | 1.0 | 4.0 | 0.00 | 0.14 | 0.00 | 61 | 1011.8 |
| 20260502040503 | 39 | 264 | 2.0 | 9.0 | 0.00 | 0.14 | 0.00 | 61 | 1011.8 |
| 20260502040003 | 39 | 267 | 2.0 | 9.0 | 0.00 | 0.14 | 0.00 | 61 | 1011.7 |
| 20260502035503 | 39 | 269 | 2.0 | 7.0 | 0.00 | 0.14 | 0.14 | 62 | 1011.7 |
| 20260502035003 | 39 | 261 | 2.0 | 7.0 | 0.00 | 0.14 | 0.14 | 62 | 1011.7 |
| 20260502034503 | 39 | 263 | 2.0 | 4.0 | 0.00 | 0.14 | 0.14 | 62 | 1011.8 |
| 20260502034003 | 39 | 261 | 2.0 | 8.0 | 0.00 | 0.14 | 0.14 | 62 | 1011.8 |
| 20260502033503 | 39 | 255 | 2.0 | 8.0 | 0.00 | 0.14 | 0.14 | 62 | 1011.8 |
| 20260502033003 | 39 | 266 | 2.0 | 6.0 | 0.00 | 0.14 | 0.14 | 62 | 1011.9 |
| 20260502032713 | 39 | 275 | 1.0 | 4.0 | 0.00 | 0.14 | 0.14 | 62 | 1011.8 |
| 20260502032003 | 39 | 248 | 1.0 | 4.0 | 0.00 | 0.14 | 0.14 | 62 | 1011.8 |
| 20260502031503 | 39 | 242 | 1.0 | 4.0 | 0.00 | 0.14 | 0.14 | 62 | 1011.8 |
| 20260502031214 | 39 | 242 | 1.0 | 4.0 | 0.00 | 0.14 | 0.14 | 62 | 1011.8 |
| 20260502030503 | 39 | 253 | 0.0 | 2.0 | 0.00 | 0.14 | 0.14 | 62 | 1011.9 |
| 20260502030003 | 39 | 250 | 0.0 | 2.0 | 0.00 | 0.14 | 0.14 | 62 | 1012.0 |
| 20260502025503 | 39 | 213 | 1.0 | 4.0 | 0.00 | 0.14 | 0.14 | 62 | 1011.9 |
| 20260502025003 | 39 | 212 | 1.0 | 4.0 | 0.00 | 0.14 | 0.14 | 62 | 1011.9 |
| 20260502024713 | 39 | 193 | 0.0 | 4.0 | 0.00 | 0.14 | 0.14 | 62 | 1011.9 |
| 20260502024003 | 39 | 229 | 0.0 | 3.0 | 0.00 | 0.14 | 0.14 | 63 | 1011.9 |
| 20260502023503 | 39 | 216 | 0.0 | 3.0 | 0.00 | 0.14 | 0.14 | 63 | 1011.9 |
| 20260502023214 | 40 | 216 | 0.0 | 3.0 | 0.00 | 0.14 | 0.14 | 63 | 1011.9 |
| 20260502022503 | 40 | 190 | 0.0 | 2.0 | 0.00 | 0.14 | 0.14 | 63 | 1011.8 |
| 20260502022003 | 40 | 190 | 0.0 | 2.0 | 0.00 | 0.14 | 0.14 | 63 | 1011.7 |
| 20260502021503 | 39 | 190 | 0.0 | 2.0 | 0.00 | 0.14 | 0.14 | 63 | 1011.8 |
| 20260502021003 | 39 | 197 | 0.0 | 2.0 | 0.00 | 0.14 | 0.14 | 62 | 1011.7 |
| 20260502020503 | 40 | 336 | 0.0 | 1.0 | 0.00 | 0.14 | 0.14 | 62 | 1011.7 |
| 20260502020003 | 40 | 0 | 0.0 | 0.0 | 0.00 | 0.14 | 0.14 | 62 | 1011.7 |
| 20260502015503 | 40 | 0 | 0.0 | 0.0 | 0.00 | 0.14 | 0.14 | 62 | 1011.8 |
| 20260502015003 | 40 | 0 | 0.0 | 0.0 | 0.00 | 0.14 | 0.14 | 62 | 1011.7 |
| 20260502014503 | 40 | 345 | 0.0 | 2.0 | 0.01 | 0.14 | 0.14 | 62 | 1011.8 |
| 20260502014003 | 40 | 345 | 1.0 | 3.0 | 0.01 | 0.14 | 0.14 | 63 | 1011.6 |
| 20260502013503 | 40 | 345 | 0.0 | 3.0 | 0.01 | 0.14 | 0.14 | 62 | 1011.6 |
| 20260502013003 | 40 | 344 | 0.0 | 2.0 | 0.01 | 0.14 | 0.14 | 62 | 1011.5 |
| 20260502012503 | 40 | 343 | 0.0 | 3.0 | 0.01 | 0.14 | 0.14 | 62 | 1011.4 |
| 20260502012003 | 40 | 342 | 0.0 | 3.0 | 0.01 | 0.14 | 0.14 | 62 | 1011.4 |
| 20260502011503 | 40 | 342 | 0.0 | 2.0 | 0.01 | 0.14 | 0.14 | 62 | 1011.4 |
| 20260502011003 | 40 | 345 | 1.0 | 3.0 | 0.01 | 0.14 | 0.14 | 62 | 1011.4 |
| 20260502010712 | 40 | 346 | 1.0 | 3.0 | 0.01 | 0.14 | 0.14 | 62 | 1011.3 |
| 20260502010003 | 40 | 355 | 1.0 | 3.0 | 0.01 | 0.14 | 0.14 | 62 | 1011.2 |
| 20260502005503 | 40 | 355 | 1.0 | 3.0 | 0.01 | 0.14 | 0.14 | 62 | 1011.2 |
| 20260502005213 | 40 | 355 | 1.0 | 3.0 | 0.02 | 0.14 | 0.14 | 62 | 1011.3 |
| 20260502004503 | 40 | 353 | 1.0 | 3.0 | 0.01 | 0.13 | 0.13 | 62 | 1011.1 |
| 20260502004003 | 40 | 352 | 1.0 | 3.0 | 0.01 | 0.13 | 0.13 | 62 | 1011.0 |
| 20260502003714 | 40 | 345 | 1.0 | 3.0 | 0.02 | 0.13 | 0.13 | 62 | 1011.0 |
| 20260502003003 | 40 | 338 | 1.0 | 3.0 | 0.02 | 0.13 | 0.13 | 61 | 1010.9 |
| 20260502002714 | 40 | 336 | 1.0 | 3.0 | 0.02 | 0.13 | 0.13 | 61 | 1010.9 |
| 20260502002213 | 40 | 335 | 0.0 | 3.0 | 0.03 | 0.13 | 0.13 | 62 | 1010.8 |
| 20260502001503 | 40 | 329 | 0.0 | 1.0 | 0.03 | 0.13 | 0.13 | 62 | 1010.7 |
| 20260502001003 | 41 | 333 | 0.0 | 3.0 | 0.03 | 0.13 | 0.13 | 61 | 1010.7 |
| 20260502000503 | 41 | 349 | 1.0 | 3.0 | 0.03 | 0.13 | 0.13 | 61 | 1010.6 |
| 20260502000003 | 41 | 355 | 1.0 | 3.0 | 0.03 | 0.13 | 0.13 | 61 | 1010.5 |
| 20260501235503 | 41 | 358 | 1.0 | 4.0 | 0.04 | 0.13 | 0.13 | 61 | 1010.5 |
| 20260501235003 | 41 | 2 | 2.0 | 4.0 | 0.03 | 0.12 | 0.12 | 61 | 1010.4 |
| 20260501234503 | 41 | 10 | 2.0 | 4.0 | 0.03 | 0.12 | 0.12 | 60 | 1010.4 |
| 20260501234003 | 41 | 7 | 3.0 | 5.0 | 0.03 | 0.12 | 0.12 | 60 | 1010.2 |
| 20260501233503 | 41 | 7 | 3.0 | 7.0 | 0.03 | 0.11 | 0.11 | 59 | 1010.3 |
| 20260501233003 | 41 | 3 | 3.0 | 8.0 | 0.03 | 0.11 | 0.11 | 59 | 1010.1 |
| 20260501232503 | 41 | 353 | 3.0 | 8.0 | 0.03 | 0.11 | 0.11 | 58 | 1010.1 |
| 20260501232212 | 41 | 352 | 3.0 | 5.0 | 0.02 | 0.10 | 0.10 | 58 | 1010.1 |
| 20260501231503 | 41 | 357 | 2.0 | 5.0 | 0.03 | 0.10 | 0.10 | 57 | 1010.1 |
| 20260501231003 | 41 | 2 | 3.0 | 5.0 | 0.03 | 0.10 | 0.10 | 57 | 1010.1 |
| 20260501230503 | 41 | 2 | 3.0 | 5.0 | 0.03 | 0.10 | 0.10 | 57 | 1010.0 |
| 20260501230003 | 42 | 356 | 2.0 | 5.0 | 0.03 | 0.10 | 0.10 | 57 | 1010.1 |
| 20260501225713 | 42 | 355 | 2.0 | 5.0 | 0.02 | 0.09 | 0.09 | 57 | 1010.2 |
| 20260501225003 | 42 | 357 | 2.0 | 4.0 | 0.03 | 0.09 | 0.09 | 57 | 1010.1 |
| 20260501224503 | 42 | 12 | 2.0 | 5.0 | 0.03 | 0.09 | 0.09 | 57 | 1010.0 |
| 20260501224003 | 42 | 22 | 2.0 | 5.0 | 0.03 | 0.09 | 0.09 | 57 | 1009.9 |
| 20260501223503 | 42 | 18 | 1.0 | 3.0 | 0.03 | 0.08 | 0.08 | 57 | 1010.1 |
| 20260501223214 | 42 | 18 | 1.0 | 3.0 | 0.03 | 0.08 | 0.08 | 57 | 1010.1 |
| 20260501222503 | 42 | 21 | 1.0 | 3.0 | 0.03 | 0.08 | 0.08 | 57 | 1010.1 |
| 20260501222003 | 42 | 24 | 2.0 | 4.0 | 0.04 | 0.08 | 0.08 | 57 | 1010.1 |
| 20260501221503 | 42 | 30 | 1.0 | 4.0 | 0.03 | 0.07 | 0.07 | 57 | 1010.1 |
| 20260501221003 | 42 | 40 | 1.0 | 3.0 | 0.03 | 0.07 | 0.07 | 58 | 1010.1 |
| 20260501220503 | 42 | 50 | 1.0 | 4.0 | 0.03 | 0.07 | 0.07 | 58 | 1010.1 |
| 20260501220003 | 42 | 66 | 2.0 | 4.0 | 0.04 | 0.07 | 0.07 | 58 | 1010.1 |
| 20260501215503 | 42 | 73 | 2.0 | 4.0 | 0.04 | 0.07 | 0.07 | 57 | 1010.1 |
| 20260501215003 | 43 | 86 | 2.0 | 4.0 | 0.03 | 0.06 | 0.06 | 58 | 1010.1 |
| 20260501214503 | 43 | 105 | 1.0 | 3.0 | 0.03 | 0.06 | 0.06 | 58 | 1010.2 |
| 20260501214003 | 43 | 96 | 1.0 | 3.0 | 0.03 | 0.06 | 0.06 | 58 | 1010.1 |
| 20260501213503 | 43 | 93 | 1.0 | 3.0 | 0.02 | 0.05 | 0.05 | 58 | 1010.1 |
| 20260501213003 | 43 | 77 | 0.0 | 2.0 | 0.02 | 0.05 | 0.05 | 58 | 1010.1 |
| 20260501212503 | 43 | 71 | 1.0 | 3.0 | 0.02 | 0.05 | 0.05 | 58 | 1010.1 |
| 20260501212003 | 43 | 70 | 0.0 | 3.0 | 0.01 | 0.04 | 0.04 | 59 | 1010.2 |
| 20260501211503 | 43 | 85 | 0.0 | 3.0 | 0.02 | 0.04 | 0.04 | 59 | 1010.2 |
| 20260501211214 | 43 | 90 | 0.0 | 3.0 | 0.02 | 0.04 | 0.04 | 59 | 1010.1 |
| 20260501210503 | 43 | 94 | 1.0 | 3.0 | 0.02 | 0.04 | 0.04 | 60 | 1010.2 |
| 20260501210214 | 43 | 91 | 1.0 | 3.0 | 0.02 | 0.04 | 0.04 | 59 | 1010.1 |
| 20260501205503 | 43 | 82 | 2.0 | 4.0 | 0.01 | 0.03 | 0.03 | 59 | 1010.1 |
| 20260501205214 | 43 | 89 | 2.0 | 4.0 | 0.02 | 0.03 | 0.03 | 59 | 1010.1 |
| 20260501204503 | 43 | 154 | 1.0 | 5.0 | 0.02 | 0.03 | 0.03 | 61 | 1010.2 |
| 20260501204003 | 43 | 178 | 2.0 | 5.0 | 0.02 | 0.03 | 0.03 | 61 | 1010.2 |
| 20260501203503 | 42 | 201 | 1.0 | 4.0 | 0.02 | 0.03 | 0.03 | 60 | 1010.2 |
| 20260501203003 | 43 | 199 | 1.0 | 4.0 | 0.03 | 0.03 | 0.03 | 61 | 1010.3 |
| 20260501202503 | 42 | 204 | 2.0 | 4.0 | 0.03 | 0.03 | 0.03 | 62 | 1010.2 |
| 20260501202003 | 42 | 200 | 2.0 | 4.0 | 0.03 | 0.03 | 0.03 | 61 | 1010.2 |
| 20260501201503 | 43 | 187 | 1.0 | 4.0 | 0.02 | 0.02 | 0.02 | 62 | 1010.3 |
| 20260501201003 | 42 | 191 | 2.0 | 7.0 | 0.02 | 0.02 | 0.02 | 62 | 1010.4 |
| 20260501200503 | 43 | 184 | 3.0 | 7.0 | 0.02 | 0.02 | 0.02 | 62 | 1010.3 |
| 20260501200003 | 43 | 179 | 4.0 | 7.0 | 0.02 | 0.02 | 0.02 | 62 | 1010.4 |
| 20260501195503 | 43 | 181 | 3.0 | 7.0 | 0.02 | 0.02 | 0.02 | 61 | 1010.4 |
| 20260501195003 | 43 | 198 | 2.0 | 8.0 | 0.01 | 0.01 | 0.01 | 62 | 1010.5 |
| 20260501194503 | 43 | 202 | 3.0 | 8.0 | 0.01 | 0.01 | 0.01 | 61 | 1010.5 |
| 20260501194003 | 44 | 201 | 2.0 | 7.0 | 0.01 | 0.01 | 0.01 | 60 | 1010.6 |
| 20260501193503 | 44 | 211 | 1.0 | 5.0 | 0.01 | 0.01 | 0.01 | 61 | 1010.6 |
| 20260501193003 | 44 | 205 | 1.0 | 6.0 | 0.00 | 0.00 | 0.00 | 60 | 1010.6 |
| 20260501192503 | 44 | 188 | 2.0 | 7.0 | 0.00 | 0.00 | 0.00 | 60 | 1010.5 |
| 20260501192003 | 44 | 198 | 2.0 | 7.0 | 0.00 | 0.00 | 0.00 | 58 | 1010.4 |
| 20260501191714 | 44 | 204 | 2.0 | 5.0 | 0.00 | 0.00 | 0.00 | 58 | 1010.5 |
| 20260501191003 | 44 | 189 | 3.0 | 7.0 | 0.00 | 0.00 | 0.00 | 59 | 1010.5 |